[[{"header":{"parameterUnit":"m.s-1","parameterCategory":1,"la1":30.2991,"la2":30.254,"lo1":-89.0895,"lo2":-89.0444,"dy":0.0017,"dx":0.0017,"nx":28,"ny":28,"refTime":"2026-02-03T03:00:00:Z","depth":0,"parameterNumber":2,"parameterNumberName":"U-component_of_WINDS"},"data":[0,0,0,0,0,0,0,0,0,0,0,0,0,0,0,0,0,0,0,0,0,0,0,0,0,0,0,0,0,0,0,0,0,0,0,0,0,0,0,0,0,0,0,0,0,0,0,0,0,0,0,0,0,0,0,0,0,0,3.0881,3.0884,0,3.1089,3.1091,3.1093,3.1117,3.1115,3.1113,3.1111,3.1328,3.1335,3.1343,0,0,0,0,0,0,0,0,0,0,0,0,0,3.051,3.0517,3.0881,3.0884,3.0886,3.1088,3.1091,3.1094,3.1117,3.1115,3.1112,3.111,3.1325,3.1334,3.1344,0,0,0,0,0,0,0,0,0,0,0,0,0,3.069,3.0519,3.0881,3.0922,3.0928,3.1088,3.1091,3.1095,3.1118,3.1115,3.1112,3.1109,3.1322,3.1334,3.1345,3.1479,0,0,3.138,3.1385,0,0,0,0,0,0,0,0,3.068,3.0703,3.0914,3.092,3.0926,3.1074,3.104,3.1224,3.1119,3.1046,3.1111,3.1107,3.1246,3.1264,3.131,3.1489,3.1499,3.1381,3.1388,3.1393,3.1397,0,0,0,0,0,0,0,3.0667,3.0695,3.0963,3.0917,3.0924,3.0932,3.0954,3.1075,3.1161,3.1052,3.1054,3.1078,3.1249,3.1298,3.1315,3.1502,3.1381,3.1391,3.1399,3.1403,3.1804,3.1807,0,0,0,0,0,0,3.0646,3.0684,3.0957,3.097,3.0793,3.0941,3.0966,3.103,3.116,3.1177,3.1081,3.1079,3.128,3.1301,3.1323,3.1489,3.1393,3.1404,3.1411,3.18,3.1805,3.1809,0,0,0,0,0,0,3.0638,3.067,3.0948,3.0828,3.0863,3.0951,3.1022,3.1035,3.1085,3.1181,3.1197,3.1115,3.1279,3.1306,3.144,3.1497,3.1409,3.142,3.1796,3.1801,3.1807,3.1823,0,0,0,0,0,0,3.0627,3.0667,3.0718,3.0828,3.087,3.1061,3.1026,3.1042,3.1104,3.1103,3.1218,3.1234,3.1278,3.1423,3.1452,3.1512,3.1429,3.1791,3.1798,3.1805,3.1818,3.1828,3.1837,0,0,0,0,0,3.0614,3.0715,3.072,3.0753,3.0935,3.1064,3.1088,3.1135,3.1108,3.1161,3.1223,3.123,3.1486,3.1436,3.1469,3.1533,3.1788,3.1796,3.1804,3.1813,3.1826,3.1837,0,0,0,0,0,0,3.061,3.073,3.0737,3.0877,3.096,3.1068,3.1135,3.1147,3.1241,3.1237,3.1293,3.1319,3.1451,3.1505,3.1448,3.1671,3.1635,3.165,3.163,3.1643,3.1653,3.1637,3.1439,0,0,0,0,0,3.0625,3.0718,3.0819,3.0932,3.0973,3.1047,3.1105,3.1135,3.1224,3.1259,3.1332,3.1419,3.1519,3.1584,3.1682,3.1825,3.1852,3.1886,3.1896,3.1903,3.1916,3.1998,3.2015,3.1836,3.1836,3.1836,0,0,3.0657,3.0734,3.079,3.0933,3.1001,3.1098,3.1076,3.118,3.1253,3.1276,3.1406,3.1462,3.1564,3.1703,3.1768,3.1753,3.1971,3.1914,3.1919,3.1928,3.2008,3.2025,3.204,3.1841,3.184,3.184,0,0,3.0766,3.0833,3.0935,3.1004,3.1107,3.1155,3.118,3.1286,3.1324,3.1455,3.1475,3.1564,3.1735,3.1807,3.1865,3.2003,3.2013,3.2033,3.2085,3.2164,3.2178,3.2191,3.2241,3.2258,3.2045,3.2045,3.2045,0,3.0793,3.0939,3.0987,3.109,3.1153,3.1177,3.1282,3.1346,3.1476,3.152,3.15,3.1716,3.1786,3.1944,3.1977,3.2024,3.2055,3.202,3.2172,3.2185,3.2198,3.2246,3.2265,3.2047,3.2047,3.2047,3.2047,0,3.0969,3.107,3.114,3.1264,3.1335,3.1439,3.1503,3.157,3.1594,3.1645,3.178,3.1864,3.198,3.2019,3.2044,3.2181,3.2168,3.216,3.2125,3.2216,3.2262,3.2281,3.205,3.2049,3.2049,3.2048,0,0,3.108,3.1229,3.1255,3.1312,3.1427,3.1507,3.1613,3.1724,3.1781,3.187,3.1961,3.2106,3.2099,3.2166,3.2199,3.2268,3.2372,3.2251,3.2254,3.2271,3.253,3.2536,3.2557,3.238,3.2383,3.2386,3.2522,0,3.1203,3.139,3.1436,3.1597,3.1692,3.1716,3.1808,3.189,3.1941,3.203,3.2087,3.2189,3.2171,3.2212,3.2281,3.2345,3.2425,3.2336,3.2467,3.2471,3.2441,3.2581,3.2588,3.2712,3.254,3.2544,3.2546,0,3.1371,3.1463,3.1632,3.1737,3.1778,3.186,3.1967,3.2051,3.2145,3.2178,3.2253,3.2279,3.2392,3.235,3.2508,3.2445,3.2502,3.2541,3.2548,3.2562,3.2514,3.26,3.2752,3.2771,3.2575,3.2572,3.257,0,3.1436,3.1603,3.1726,3.1774,3.1898,3.1956,3.201,3.2101,3.2166,3.226,3.2303,3.2409,3.2468,3.255,3.2605,3.257,3.2759,3.2721,3.279,3.2789,3.2829,3.2826,3.2993,3.2864,3.2864,3.2863,3.2863,0,3.1569,3.1672,3.1757,3.1833,3.195,3.2003,3.2117,3.2173,3.2254,3.2342,3.237,3.2453,3.252,3.2613,3.2657,3.2781,3.2807,3.2838,3.2848,3.2836,3.2832,3.2874,3.2867,3.2868,3.2867,3.2866,3.2865,0,3.1662,3.1723,3.1859,3.1966,3.1995,3.2076,3.2169,3.2244,3.2296,3.2408,3.2437,3.2519,3.2629,3.2692,3.2831,3.2861,3.3,3.3006,3.2967,3.2972,3.3037,3.3031,3.3238,3.3268,3.3118,3.312,3.3121,0,3.1742,3.1822,3.1938,3.1998,3.2054,3.2151,3.2217,3.2273,3.2341,3.2455,3.2517,3.2629,3.2721,3.2897,3.297,3.3077,3.3086,3.3152,3.3103,3.3088,3.3088,3.3083,3.3092,3.316,3.3161,3.3162,3.3163,0,3.188,3.1906,3.1999,3.2104,3.2182,3.2267,3.2352,3.2401,3.2471,3.2546,3.2659,3.273,3.2872,3.2983,3.3097,3.3155,3.3172,3.3178,3.32,3.3188,3.3163,3.3178,3.2991,3.3173,3.3172,3.3171,3.3171,3.3171,3.197,3.2042,3.2135,3.2239,3.2308,3.2387,3.2463,3.2525,3.2619,3.2738,3.2766,3.2885,3.2978,3.3132,3.3193,3.3288,3.3277,3.3308,3.3316,3.3323,3.3325,3.3147,3.3309,3.3309,3.3309,3.3308,3.3308,0,3.2109,3.217,3.2265,3.2382,3.2465,3.2472,3.2566,3.2635,3.2738,3.2824,3.2914,3.3044,3.3152,3.3234,3.3345,3.3405,3.3416,3.3433,3.3429,3.3443,3.3329,3.3299,3.3422,3.3422,3.3422,3.3422,3.3422,3.3422,3.2192,3.2315,3.2353,3.2511,3.2572,3.2688,3.2741,3.2815,3.2883,3.3027,3.3116,3.3168,3.3253,3.3371,3.3471,3.3492,3.3532,3.3548,3.3571,3.3463,3.3451,3.3439,3.3411,3.3556,3.3556,3.3677,3.3678,3.3679]},{"header":{"parameterUnit":"m.s-1","parameterCategory":1,"la1":30.2991,"la2":30.254,"lo1":-89.0895,"lo2":-89.0444,"dy":0.0017,"dx":0.0017,"nx":28,"ny":28,"refTime":"2026-02-03T03:00:00:Z","depth":0,"parameterNumber":3,"parameterNumberName":"V-component_of_WINDS"},"data":[0,0,0,0,0,0,0,0,0,0,0,0,0,0,0,0,0,0,0,0,0,0,0,0,0,0,0,0,0,0,0,0,0,0,0,0,0,0,0,0,0,0,0,0,0,0,0,0,0,0,0,0,0,0,0,0,0,0,-2.8254,-2.8251,0,-2.7996,-2.7993,-2.799,-2.7908,-2.791,-2.7911,-2.7912,-2.7633,-2.7625,-2.7616,0,0,0,0,0,0,0,0,0,0,0,0,0,-2.8665,-2.8658,-2.8254,-2.8251,-2.8248,-2.7996,-2.7992,-2.7989,-2.7908,-2.791,-2.7911,-2.7913,-2.7636,-2.7626,-2.7615,0,0,0,0,0,0,0,0,0,0,0,0,0,-2.8454,-2.8656,-2.8255,-2.8177,-2.8168,-2.7997,-2.7992,-2.7988,-2.7908,-2.791,-2.7912,-2.7913,-2.7639,-2.7627,-2.7614,-2.7496,0,0,-2.7575,-2.7569,0,0,0,0,0,0,0,0,-2.8466,-2.8439,-2.8192,-2.8182,-2.8172,-2.7987,-2.8035,-2.7823,-2.7907,-2.8006,-2.7912,-2.7914,-2.7748,-2.7726,-2.7673,-2.7483,-2.7471,-2.7573,-2.7566,-2.756,-2.7556,0,0,0,0,0,0,0,-2.8481,-2.845,-2.8151,-2.8188,-2.8176,-2.8151,-2.8124,-2.7994,-2.7869,-2.7998,-2.7991,-2.7963,-2.7743,-2.7686,-2.7666,-2.7467,-2.7574,-2.7562,-2.7554,-2.7549,-2.7166,-2.7164,0,0,0,0,0,0,-2.8511,-2.8463,-2.8159,-2.8144,-2.8327,-2.8143,-2.8112,-2.8044,-2.7871,-2.7846,-2.7961,-2.796,-2.7707,-2.7681,-2.7656,-2.7506,-2.756,-2.7548,-2.7541,-2.7169,-2.7166,-2.7163,0,0,0,0,0,0,-2.852,-2.8484,-2.817,-2.8301,-2.826,-2.8134,-2.8058,-2.8038,-2.7981,-2.7843,-2.7819,-2.7927,-2.7708,-2.7674,-2.7538,-2.7496,-2.7542,-2.7531,-2.7172,-2.7168,-2.7165,-2.7207,0,0,0,0,0,0,-2.8532,-2.8488,-2.8445,-2.8301,-2.8253,-2.806,-2.8056,-2.8031,-2.7961,-2.7956,-2.7805,-2.7781,-2.7707,-2.7557,-2.7525,-2.7479,-2.752,-2.7175,-2.717,-2.7166,-2.7208,-2.7205,-2.7202,0,0,0,0,0,-2.8547,-2.8464,-2.8444,-2.8407,-2.8197,-2.8058,-2.803,-2.795,-2.7958,-2.7911,-2.7823,-2.7786,-2.7506,-2.7544,-2.7507,-2.7456,-2.7177,-2.7171,-2.7166,-2.721,-2.7206,-2.7202,0,0,0,0,0,0,-2.8601,-2.8444,-2.8419,-2.8288,-2.8188,-2.8045,-2.7984,-2.7948,-2.7839,-2.7839,-2.7739,-2.7706,-2.7576,-2.7502,-2.7547,-2.7333,-2.734,-2.7326,-2.7386,-2.738,-2.7377,-2.7397,-2.751,0,0,0,0,0,-2.8599,-2.8504,-2.8369,-2.8266,-2.8218,-2.811,-2.8046,-2.7994,-2.7883,-2.7839,-2.774,-2.7631,-2.7518,-2.7445,-2.7334,-2.7198,-2.7162,-2.7145,-2.7142,-2.714,-2.7128,-2.705,-2.704,-2.7145,-2.7145,-2.7146,0,0,-2.8591,-2.8494,-2.8438,-2.8275,-2.8191,-2.809,-2.8074,-2.7968,-2.7891,-2.7821,-2.7687,-2.7611,-2.7482,-2.7346,-2.728,-2.728,-2.7092,-2.7133,-2.7132,-2.7121,-2.7043,-2.7033,-2.7024,-2.7142,-2.7142,-2.7143,0,0,-2.8526,-2.8444,-2.8349,-2.8267,-2.8141,-2.807,-2.8048,-2.791,-2.7859,-2.7724,-2.767,-2.7574,-2.7383,-2.7293,-2.7222,-2.7125,-2.7086,-2.7091,-2.7073,-2.6998,-2.6989,-2.6981,-2.6945,-2.6933,-2.7081,-2.7081,-2.7081,0,-2.8531,-2.8381,-2.8304,-2.8202,-2.813,-2.8068,-2.7969,-2.7891,-2.7734,-2.7684,-2.7687,-2.7446,-2.7355,-2.7196,-2.7173,-2.7118,-2.7086,-2.7107,-2.6998,-2.6989,-2.698,-2.6944,-2.6931,-2.7083,-2.7082,-2.7082,-2.7082,0,-2.8393,-2.829,-2.8228,-2.8084,-2.8005,-2.7905,-2.7809,-2.7738,-2.7693,-2.762,-2.7483,-2.7372,-2.7237,-2.7195,-2.7148,-2.7029,-2.7033,-2.7018,-2.7023,-2.6973,-2.6937,-2.6923,-2.7084,-2.7084,-2.7084,-2.7083,0,0,-2.8352,-2.8169,-2.8147,-2.8081,-2.7939,-2.7856,-2.7752,-2.7625,-2.7565,-2.7459,-2.7366,-2.7207,-2.7193,-2.7113,-2.7055,-2.6989,-2.6918,-2.6982,-2.6977,-2.6972,-2.6777,-2.6788,-2.6773,-2.6892,-2.6889,-2.6887,-2.6787,0,-2.8267,-2.8085,-2.8012,-2.7861,-2.7764,-2.7704,-2.7613,-2.7514,-2.7444,-2.7347,-2.7267,-2.7155,-2.7147,-2.7098,-2.703,-2.6941,-2.6877,-2.6947,-2.6801,-2.6797,-2.6834,-2.6755,-2.6765,-2.6677,-2.6773,-2.6771,-2.6769,0,-2.8144,-2.8042,-2.7884,-2.7755,-2.7711,-2.7631,-2.7509,-2.7419,-2.7304,-2.7257,-2.7169,-2.7116,-2.7,-2.7015,-2.6852,-2.6902,-2.6837,-2.6784,-2.6779,-2.676,-2.6778,-2.6732,-2.6647,-2.6633,-2.6746,-2.6748,-2.675,0,-2.8129,-2.7951,-2.7834,-2.7779,-2.7626,-2.7571,-2.7503,-2.7391,-2.7319,-2.7211,-2.7163,-2.7041,-2.6973,-2.6878,-2.6791,-2.681,-2.6635,-2.6643,-2.6589,-2.6592,-2.6553,-2.6556,-2.6455,-2.6516,-2.6516,-2.6517,-2.6517,0,-2.804,-2.7945,-2.7825,-2.7752,-2.7643,-2.7559,-2.7451,-2.7379,-2.728,-2.7189,-2.7128,-2.7043,-2.6935,-2.6835,-2.6766,-2.664,-2.661,-2.6566,-2.6548,-2.657,-2.6575,-2.6524,-2.6527,-2.6513,-2.6514,-2.6514,-2.6515,0,-2.8004,-2.792,-2.7788,-2.7655,-2.762,-2.7544,-2.7428,-2.7353,-2.7282,-2.7167,-2.7135,-2.702,-2.6899,-2.6805,-2.6645,-2.6598,-2.6465,-2.6446,-2.6505,-2.6496,-2.6447,-2.6452,-2.6307,-2.6282,-2.6363,-2.6363,-2.6362,0,-2.7952,-2.7878,-2.774,-2.7677,-2.7612,-2.7511,-2.7439,-2.7353,-2.728,-2.7145,-2.7085,-2.6961,-2.6857,-2.6665,-2.6564,-2.6441,-2.6418,-2.6376,-2.6398,-2.6423,-2.6414,-2.6419,-2.641,-2.6372,-2.6371,-2.6371,-2.6371,0,-2.7869,-2.7832,-2.7734,-2.762,-2.7538,-2.7443,-2.7346,-2.7297,-2.7193,-2.7113,-2.6992,-2.6912,-2.6752,-2.6627,-2.6495,-2.6419,-2.6376,-2.6365,-2.6346,-2.6366,-2.6402,-2.638,-2.6495,-2.6368,-2.6368,-2.6368,-2.6369,-2.6369,-2.7821,-2.7753,-2.7645,-2.7537,-2.7457,-2.7369,-2.7292,-2.7213,-2.7112,-2.6978,-2.6933,-2.6807,-2.6691,-2.651,-2.6434,-2.6331,-2.6328,-2.6301,-2.6293,-2.6287,-2.6288,-2.6422,-2.6306,-2.6306,-2.6306,-2.6306,-2.6306,0,-2.7733,-2.7662,-2.7564,-2.7434,-2.7348,-2.7322,-2.7213,-2.7142,-2.7034,-2.6933,-2.6833,-2.6692,-2.6572,-2.6463,-2.6337,-2.6275,-2.6251,-2.6244,-2.6246,-2.6229,-2.6299,-2.6328,-2.6265,-2.6265,-2.6265,-2.6265,-2.6265,-2.6265,-2.7678,-2.756,-2.7511,-2.7351,-2.7279,-2.7159,-2.71,-2.7016,-2.6936,-2.6783,-2.6685,-2.6618,-2.6512,-2.6377,-2.6264,-2.6235,-2.619,-2.6187,-2.6152,-2.6219,-2.6224,-2.6229,-2.6255,-2.6179,-2.6179,-2.609,-2.6089,-2.6089]}]]